TimeEDT,TemperatureF,Dew PointF,Humidity,Sea Level PressureIn,VisibilityMPH,Wind Direction,Wind SpeedMPH,Gust SpeedMPH,PrecipitationIn,Events,Conditions,WindDirDegrees,DateUTC
12:15 AM,55.4,51.8,88,29.98,10.0,Calm,Calm,-,0.00,,Partly Cloudy,0,2013-05-08 04:15:00
12:35 AM,55.4,51.8,88,29.98,10.0,Calm,Calm,-,0.00,,Mostly Cloudy,0,2013-05-08 04:35:00
12:55 AM,53.6,51.8,94,29.97,10.0,Calm,Calm,-,0.00,,Scattered Clouds,0,2013-05-08 04:55:00
1:15 AM,53.6,51.8,94,29.97,10.0,Calm,Calm,-,0.00,,Clear,0,2013-05-08 05:15:00
1:35 AM,51.8,51.8,100,29.97,10.0,Calm,Calm,-,0.00,,Clear,0,2013-05-08 05:35:00
1:55 AM,51.8,51.8,100,29.97,10.0,Calm,Calm,-,0.00,,Clear,0,2013-05-08 05:55:00
2:15 AM,53.6,51.8,94,29.96,10.0,Calm,Calm,-,0.00,,Scattered Clouds,0,2013-05-08 06:15:00
2:35 AM,53.6,51.8,94,29.96,10.0,Calm,Calm,-,0.00,,Mostly Cloudy,0,2013-05-08 06:35:00
2:55 AM,53.6,51.8,94,29.95,10.0,Calm,Calm,-,0.00,,Mostly Cloudy,0,2013-05-08 06:55:00
3:15 AM,53.6,51.8,94,29.95,10.0,Calm,Calm,-,0.00,,Mostly Cloudy,0,2013-05-08 07:15:00
3:35 AM,51.8,51.8,100,29.95,10.0,Calm,Calm,-,0.00,,Scattered Clouds,0,2013-05-08 07:35:00
3:55 AM,51.8,51.8,100,29.95,10.0,Calm,Calm,-,0.00,,Clear,0,2013-05-08 07:55:00
4:15 AM,51.8,51.8,100,29.96,9.0,Calm,Calm,-,0.00,,Clear,0,2013-05-08 08:15:00
4:35 AM,51.8,51.8,100,29.96,10.0,Calm,Calm,-,0.00,,Clear,0,2013-05-08 08:35:00
4:55 AM,50.0,48.2,94,29.96,10.0,Calm,Calm,-,0.00,,Clear,0,2013-05-08 08:55:00
5:15 AM,50.0,48.2,94,29.96,10.0,Calm,Calm,-,0.00,,Scattered Clouds,0,2013-05-08 09:15:00
5:35 AM,50.0,48.2,94,29.96,10.0,Calm,Calm,-,0.00,,Scattered Clouds,0,2013-05-08 09:35:00
5:55 AM,48.2,48.2,100,29.96,10.0,Calm,Calm,-,0.00,,Clear,0,2013-05-08 09:55:00
6:15 AM,48.2,48.2,100,29.97,10.0,Calm,Calm,-,0.00,,Clear,0,2013-05-08 10:15:00
6:55 AM,51.8,50.0,94,29.98,10.0,Calm,Calm,-,0.00,,Clear,0,2013-05-08 10:55:00
7:15 AM,53.6,51.8,94,29.99,9.0,SSW,4.6,-,0.00,,Clear,200,2013-05-08 11:15:00
7:35 AM,53.6,51.8,94,30.00,9.0,Calm,Calm,-,0.00,,Clear,0,2013-05-08 11:35:00
7:55 AM,55.4,51.8,88,30.00,10.0,South,3.5,-,0.00,,Clear,190,2013-05-08 11:55:00
8:15 AM,57.2,53.6,88,30.01,10.0,SSW,5.8,-,0.00,,Clear,210,2013-05-08 12:15:00
8:35 AM,57.2,53.6,88,30.01,9.0,West,4.6,-,0.00,,Clear,270,2013-05-08 12:35:00
8:55 AM,59.0,53.6,82,30.01,10.0,Calm,Calm,-,0.00,,Clear,0,2013-05-08 12:55:00
9:15 AM,60.8,53.6,77,30.02,10.0,WSW,4.6,-,0.00,,Clear,250,2013-05-08 13:15:00
9:35 AM,62.6,55.4,77,30.02,10.0,WSW,3.5,-,0.00,,Clear,240,2013-05-08 13:35:00
9:55 AM,62.6,55.4,77,30.02,10.0,SSW,3.5,-,0.00,,Clear,200,2013-05-08 13:55:00
10:15 AM,64.4,55.4,73,30.03,10.0,WSW,4.6,-,0.00,,Clear,240,2013-05-08 14:15:00
10:35 AM,66.2,55.4,68,30.03,10.0,South,4.6,-,0.00,,Clear,190,2013-05-08 14:35:00
10:55 AM,68.0,55.4,64,30.03,10.0,SW,4.6,-,0.00,,Clear,230,2013-05-08 14:55:00
11:15 AM,68.0,55.4,64,30.03,10.0,South,3.5,-,0.00,,Clear,180,2013-05-08 15:15:00
11:35 AM,69.8,57.2,64,30.03,10.0,Calm,Calm,-,0.00,,Clear,0,2013-05-08 15:35:00
11:55 AM,69.8,55.4,60,30.03,10.0,WSW,6.9,-,0.00,,Clear,240,2013-05-08 15:55:00
12:15 PM,71.6,57.2,60,30.02,10.0,Calm,Calm,-,0.00,,Scattered Clouds,0,2013-05-08 16:15:00
12:35 PM,71.6,55.4,57,30.02,10.0,SSW,8.1,-,0.00,,Scattered Clouds,200,2013-05-08 16:35:00
12:55 PM,73.4,55.4,53,30.01,10.0,SW,6.9,-,0.00,,Scattered Clouds,220,2013-05-08 16:55:00
1:15 PM,73.4,55.4,53,30.01,10.0,WSW,5.8,-,0.00,,Partly Cloudy,240,2013-05-08 17:15:00
1:35 PM,75.2,55.4,50,30.00,10.0,SSW,9.2,-,0.00,,Partly Cloudy,200,2013-05-08 17:35:00
1:55 PM,75.2,53.6,47,29.99,10.0,SW,13.8,-,0.00,,Partly Cloudy,220,2013-05-08 17:55:00
2:15 PM,75.2,51.8,44,29.99,10.0,SW,8.1,-,0.00,,Partly Cloudy,230,2013-05-08 18:15:00
2:35 PM,77.0,51.8,41,29.99,9.0,WSW,10.4,-,0.00,,Partly Cloudy,240,2013-05-08 18:35:00
2:55 PM,77.0,53.6,44,29.98,10.0,WSW,12.7,18.4,0.00,,Scattered Clouds,250,2013-05-08 18:55:00
3:15 PM,77.0,53.6,44,29.98,10.0,SW,9.2,-,0.00,,Scattered Clouds,230,2013-05-08 19:15:00
3:35 PM,75.2,53.6,47,29.97,10.0,WSW,9.2,-,0.00,,Mostly Cloudy,250,2013-05-08 19:35:00
3:55 PM,78.8,55.4,44,29.97,10.0,WSW,9.2,-,0.00,,Scattered Clouds,250,2013-05-08 19:55:00
4:15 PM,78.8,53.6,42,29.96,10.0,West,11.5,16.1,0.00,,Partly Cloudy,270,2013-05-08 20:15:00
4:35 PM,77.0,53.6,44,29.96,10.0,SW,9.2,-,0.00,,Mostly Cloudy,230,2013-05-08 20:35:00
4:55 PM,77.0,55.4,47,29.96,10.0,West,10.4,16.1,0.00,,Scattered Clouds,270,2013-05-08 20:55:00
5:15 PM,78.8,53.6,42,29.96,10.0,SW,11.5,-,0.00,,Clear,230,2013-05-08 21:15:00
5:35 PM,78.8,51.8,39,29.96,10.0,WSW,12.7,21.9,0.00,,Scattered Clouds,250,2013-05-08 21:35:00
5:55 PM,78.8,51.8,39,29.96,10.0,WSW,10.4,-,0.00,,Partly Cloudy,250,2013-05-08 21:55:00
6:15 PM,78.8,51.8,39,29.96,10.0,WSW,11.5,17.3,0.00,,Partly Cloudy,250,2013-05-08 22:15:00
6:35 PM,78.8,51.8,39,29.96,10.0,West,5.8,-,0.00,,Clear,280,2013-05-08 22:35:00
6:55 PM,75.2,51.8,44,29.96,10.0,WSW,9.2,-,0.00,,Partly Cloudy,240,2013-05-08 22:55:00
7:15 PM,75.2,53.6,47,29.97,10.0,WSW,6.9,-,0.00,,Clear,250,2013-05-08 23:15:00
7:35 PM,75.2,53.6,47,29.97,10.0,WSW,4.6,-,0.00,,Clear,240,2013-05-08 23:35:00
7:55 PM,73.4,53.6,50,29.98,10.0,SW,3.5,-,0.00,,Clear,230,2013-05-08 23:55:00
8:15 PM,73.4,55.4,53,29.98,10.0,Calm,Calm,-,0.00,,Partly Cloudy,0,2013-05-09 00:15:00
8:35 PM,73.4,55.4,53,29.99,10.0,Calm,Calm,-,0.00,,Scattered Clouds,0,2013-05-09 00:35:00
8:55 PM,71.6,55.4,57,29.99,10.0,Calm,Calm,-,0.00,,Mostly Cloudy,0,2013-05-09 00:55:00
9:15 PM,71.6,55.4,57,30.00,10.0,Calm,Calm,-,0.00,,Mostly Cloudy,0,2013-05-09 01:15:00
9:35 PM,71.6,55.4,57,30.01,10.0,Calm,Calm,-,0.00,,Mostly Cloudy,0,2013-05-09 01:35:00
9:55 PM,68.0,57.2,68,30.02,10.0,Calm,Calm,-,0.00,,Scattered Clouds,0,2013-05-09 01:55:00
10:15 PM,66.2,57.2,73,30.02,10.0,Calm,Calm,-,0.00,,Partly Cloudy,0,2013-05-09 02:15:00
10:35 PM,64.4,57.2,77,30.02,10.0,Calm,Calm,-,0.00,,Clear,0,2013-05-09 02:35:00
10:55 PM,64.4,57.2,77,30.03,10.0,Calm,Calm,-,0.00,,Partly Cloudy,0,2013-05-09 02:55:00
11:15 PM,62.6,57.2,82,30.03,10.0,Calm,Calm,-,0.00,,Partly Cloudy,0,2013-05-09 03:15:00
11:35 PM,62.6,57.2,82,30.03,10.0,Calm,Calm,-,0.00,,Scattered Clouds,0,2013-05-09 03:35:00